Regional Weather Roundup
Issued by NWS

Home | Current Version | Previous Version | Text Only | Print | Product List | Glossary Off
Versions: 1 2 3 4 5 6 7 8 9 10 11 12 13 14 15 16 17 18 19 20 21 22 23 24 25 26 27 28 29 30 31 32 33 34 35 36 37 38 39 40 41 42 43 44 45 46 47 48 49 50

000
ASUS43 KLSX 170307
RWRMO

WEATHER SUMMARY FOR MISSOURI
NATIONAL WEATHER SERVICE SPRINGFIELD MO
1000 PM CDT WED AUG 16 2017

NOTE: "FAIR" INDICATES FEW OR NO CLOUDS BELOW 12,000 FEET WITH NO
       SIGNIFICANT WEATHER AND/OR OBSTRUCTIONS TO VISIBILITY.
       CURRENT SKY AND/OR WEATHER CONDITIONS ARE NOT AVAILABLE FOR
       CHILLICOTHE AND FARMINGTON.

MOZ001>031-035>038-043-044-053-054-170400-
...NORTHERN AND WESTERN MISSOURI...

CITY           SKY/WX    TMP DP  RH WIND       PRES   REMARKS
KANSAS CTY INT CLOUDY    74  73  97 SW6       29.84S
KANSAS C DTWN  CLOUDY    76  73  91 SW12      29.84R
LEE`S SUMMIT   CLOUDY    70  70 100 S10       29.86S
ST JOSEPH      FOG       74  73  97 SW6       29.83S VSB 3/4
CHILLICOTHE      N/A     73  72  96 CALM      29.83S
KIRKSVILLE     CLOUDY    75  73  93 SW7       29.82R

$$
MOZ066>068-077>081-088>096-101>105-170400-
...SOUTHWEST MISSOURI...

CITY           SKY/WX    TMP DP  RH WIND       PRES   REMARKS
SPRINGFIELD    LGT RAIN  77  76  96 SW6       29.92F
JOPLIN         TSTM      69  69 100 NW8       30.00R VSB 1
BRANSON        CLOUDY    77  73  88 CALM      29.96F

$$
MOZ032>034-039>042-045>050-055>058-069>072-170400-
...CENTRAL MISSOURI...

CITY           SKY/WX    TMP DP  RH WIND       PRES   REMARKS
COLUMBIA       LGT RAIN  73  71  93 E9        29.88S
JEFFERSON CITY CLOUDY    75  73  93 VRB6G20   29.88S
ROLLA          LGT RAIN  69  67  93 NW17G30   29.97R FOG
SEDALIA        CLOUDY    69  69 100 SE8       29.85F
WHITEMAN AFB   LGT RAIN  69  69  99 SW12      29.84F
WARRENSBURG    LGT RAIN  68  64  88 S9        29.84F
OSAGE BEACH    HVY RAIN  68  67  96 W10       29.97R FOG

$$
MOZ051-052-059>065-170400-
...EAST CENTRAL MISSOURI...

CITY           SKY/WX    TMP DP  RH WIND       PRES   REMARKS
ST LOUIS INTL  CLOUDY    72  69  90 VRB6      29.90F
SPIRIT OF STL  MOCLDY    71  69  93 S3        29.89S
ST CHARLES     CLOUDY    72  70  93 CALM      29.89S

$$
MOZ072>076-082>087-097>100-106>115-170400-
...SOUTH CENTRAL AND SOUTHEAST MISSOURI...

CITY           SKY/WX    TMP DP  RH WIND       PRES   REMARKS
CAPE GIRARDEAU HVY RAIN  72  70  93 E10       29.97R FOG
FARMINGTON     CLOUDY    69  68  96 S7        29.96
POPLAR BLUFF   CLEAR     77  76  96 CALM      29.95R
WEST PLAINS    CLOUDY    80  72  76 S6        29.97R

$$


USA.gov is the U.S. government's official web portal to all federal, state and local government web resources and services.